Simultaneous Nadir Overpasses (SNOs) Predictions

Prediction of SNOs between AQUA and LANDSAT-8 Satellite Orbit:

Table of predicted SNOs for the next 14.0 days since TLE Epoch: 11/9/2024
Index Date (AQUA) Time (AQUA) Lat,Lon (AQUA) SZA (AQUA ) Date (LANDSAT-8) Time (LANDSAT-8) Lat,Lon (LANDSAT-8) SZA (LANDSAT-8 ) Distance(km) Time Diff (sec)
1 11/19/2024 22:25:10 -73.94, 28.92 86.24 11/19/2024 22:24:02 -73.96, 27.05 86.30 57.59 68
2 11/19/2024 23:14:34 74.14,-163.87 93.95 11/19/2024 23:13:24 74.13,-164.93 93.89 32.29 70
3 11/20/2024 00:03:58 -74.37, 3.25 85.84 11/20/2024 00:02:47 -74.37, 3.27 85.85 0.62 71
4 11/20/2024 00:53:18 74.36, 170.94 94.17 11/20/2024 00:52:12 74.38, 170.94 94.18 1.90 66
5 11/20/2024 01:42:38 -74.39, -21.45 85.81 11/20/2024 01:41:40 -74.36, -21.46 85.84 2.37 58
6 11/20/2024 02:31:58 74.38, 146.23 94.20 11/20/2024 02:31:05 74.37, 146.21 94.19 0.84 53
7 11/20/2024 03:21:18 -74.40, -46.16 85.78 11/20/2024 03:20:32 -74.41, -46.07 85.77 2.74 46
8 11/20/2024 04:10:38 74.40, 121.53 94.23 11/20/2024 04:09:58 74.37, 121.48 94.20 3.32 40
9 11/20/2024 04:59:58 -74.42, -70.86 85.75 11/20/2024 04:59:25 -74.41, -70.80 85.76 2.30 33
10 11/20/2024 05:49:18 74.41, 96.82 94.26 11/20/2024 05:48:50 74.42, 96.87 94.26 1.39 28
11 11/20/2024 06:38:37 -74.38, -95.44 85.76 11/20/2024 06:38:18 -74.40, -95.53 85.75 3.30 19
12 11/20/2024 07:27:58 74.43, 72.12 94.29 11/20/2024 07:27:43 74.41, 72.13 94.27 2.28 15
13 11/20/2024 08:17:17 -74.40,-120.15 85.73 11/20/2024 08:17:11 -74.39,-120.27 85.74 3.72 6
14 11/20/2024 09:06:38 74.45, 47.41 94.32 11/20/2024 09:06:35 74.46, 47.52 94.34 3.55 3
15 11/20/2024 09:55:57 -74.42,-144.85 85.70 11/20/2024 09:56:03 -74.44,-144.88 85.68 2.56 6
16 11/20/2024 10:45:18 74.46, 22.70 94.35 11/20/2024 10:45:28 74.45, 22.79 94.35 3.03 10
17 11/20/2024 11:34:37 -74.44,-169.56 85.67 11/20/2024 11:34:56 -74.44,-169.61 85.67 1.60 19
18 11/20/2024 12:23:57 74.43, -1.88 94.34 11/20/2024 12:24:21 74.44, -1.94 94.35 2.51 24
19 11/20/2024 13:13:17 -74.45, 165.74 85.64 11/20/2024 13:13:48 -74.48, 165.78 85.60 3.31 31
20 11/20/2024 14:02:37 74.45, -26.58 94.37 11/20/2024 14:03:14 74.44, -26.68 94.36 2.91 37
21 11/20/2024 14:51:57 -74.47, 141.03 85.61 11/20/2024 14:52:41 -74.48, 141.05 85.60 0.70 44
22 11/20/2024 15:41:17 74.47, -51.29 94.40 11/20/2024 15:42:06 74.49, -51.29 94.43 2.12 49
23 11/20/2024 16:30:37 -74.49, 116.32 85.58 11/20/2024 16:31:34 -74.47, 116.31 85.59 2.10 57
24 11/20/2024 17:19:57 74.48, -76.00 94.43 11/20/2024 17:20:59 74.48, -76.02 94.44 0.79 62
25 11/20/2024 18:09:17 -74.51, 91.61 85.54 11/20/2024 18:10:26 -74.52, 91.70 85.52 2.80 69
26 11/20/2024 18:58:39 74.60,-100.96 94.56 11/20/2024 18:59:50 74.58,-100.50 94.56 13.91 71
27 11/20/2024 19:48:03 -74.88, 66.00 85.19 11/20/2024 19:49:11 -74.86, 67.86 85.13 53.90 68
28 11/20/2024 20:37:28 75.13,-127.00 95.06 11/20/2024 20:38:32 75.08,-123.94 95.12 87.61 64



Historial Predications of SNOs between AQUA and LANDSAT-8
